Time,TemperatureF,DewpointF,PressureIn,WindDirection,WindDirectionDegrees,WindSpeedMPH,WindSpeedGustMPH,Humidity,HourlyPrecipIn,Conditions,Clouds,dailyrainin,SoftwareType,DateUTC
2013-03-18 04:38:00,32.7,28.7,30.09,East,91,4.0,4.0,85,0.00,,---,0.00,VWS V14.01,2013-03-18 08:38:00,
2013-03-18 04:39:00,32.6,28.6,30.09,West,260,3.0,4.0,85,0.00,,---,0.00,VWS V14.01,2013-03-18 08:39:00,
2013-03-18 04:40:00,32.6,28.6,30.09,SSW,192,8.0,11.0,85,0.00,,---,0.00,VWS V14.01,2013-03-18 08:40:00,
2013-03-18 04:44:00,32.5,28.5,30.09,ENE,59,0.0,8.0,85,0.00,,---,0.00,VWS V14.01,2013-03-18 08:44:00,
2013-03-18 04:49:00,32.5,28.8,30.09,NE,49,2.0,9.0,86,0.00,,---,0.00,VWS V14.01,2013-03-18 08:49:00,
2013-03-18 04:50:00,32.4,28.7,30.09,ENE,59,6.0,9.0,86,0.00,,---,0.00,VWS V14.01,2013-03-18 08:50:00,
2013-03-18 04:54:00,32.3,28.9,30.08,NNE,17,6.0,7.0,87,0.00,,---,0.00,VWS V14.01,2013-03-18 08:54:00,
2013-03-18 04:59:00,32.2,28.8,30.08,East,82,5.0,14.0,87,0.00,,---,0.00,VWS V14.01,2013-03-18 08:59:00,
2013-03-18 05:00:00,32.2,28.8,30.08,East,98,5.0,14.0,87,0.00,,---,0.00,VWS V14.01,2013-03-18 09:00:00,
2013-03-18 05:04:00,32.1,28.7,30.08,North,350,2.0,8.0,87,0.00,,---,0.00,VWS V14.01,2013-03-18 09:04:00,
2013-03-18 05:09:00,32.0,28.9,30.07,NNW,338,6.0,15.0,88,0.00,,---,0.00,VWS V14.01,2013-03-18 09:09:00,
2013-03-18 05:10:00,32.0,28.9,30.07,NNW,338,6.0,15.0,88,0.00,,---,0.00,VWS V14.01,2013-03-18 09:10:00,
2013-03-18 05:14:00,31.8,28.7,30.07,South,169,1.0,14.0,88,0.00,,---,0.00,VWS V14.01,2013-03-18 09:14:00,
2013-03-18 05:19:00,31.8,28.7,30.07,ENE,72,3.0,19.0,88,0.00,,---,0.00,VWS V14.01,2013-03-18 09:19:00,
2013-03-18 05:20:00,31.8,28.7,30.07,SSE,148,2.0,19.0,88,0.00,,---,0.00,VWS V14.01,2013-03-18 09:20:00,
2013-03-18 05:24:00,31.8,28.7,30.07,South,171,6.0,18.0,88,0.00,,---,0.00,VWS V14.01,2013-03-18 09:24:00,
2013-03-18 05:29:00,31.8,28.7,30.07,NE,53,2.0,18.0,88,0.00,,---,0.00,VWS V14.01,2013-03-18 09:29:00,
2013-03-18 05:30:00,31.8,28.7,30.07,ENE,63,1.0,18.0,88,0.00,,---,0.00,VWS V14.01,2013-03-18 09:30:00,
2013-03-18 05:34:00,31.8,28.7,30.07,NE,34,2.0,10.0,88,0.00,,---,0.00,VWS V14.01,2013-03-18 09:34:00,
2013-03-18 05:39:00,31.8,28.7,30.07,SW,230,5.0,18.0,88,0.00,,---,0.00,VWS V14.01,2013-03-18 09:39:00,
2013-03-18 05:40:00,31.9,28.8,30.07,West,272,1.0,18.0,88,0.00,,---,0.00,VWS V14.01,2013-03-18 09:40:00,
2013-03-18 05:44:00,31.8,28.7,30.06,East,94,18.0,18.0,88,0.00,,---,0.00,VWS V14.01,2013-03-18 09:44:00,
2013-03-18 05:49:00,31.8,28.4,30.07,ESE,117,8.0,18.0,87,0.00,,---,0.00,VWS V14.01,2013-03-18 09:49:00,
2013-03-18 05:50:00,31.9,28.5,30.07,SSE,149,10.0,18.0,87,0.00,,---,0.00,VWS V14.01,2013-03-18 09:50:00,
2013-03-18 05:54:00,31.9,28.5,30.07,South,181,5.0,13.0,87,0.00,,---,0.00,VWS V14.01,2013-03-18 09:54:00,
2013-03-18 05:59:00,32.1,28.4,30.06,SE,129,12.0,14.0,86,0.00,,---,0.00,VWS V14.01,2013-03-18 09:59:00,
2013-03-18 06:00:00,32.1,28.4,30.06,SE,138,6.0,14.0,86,0.00,,---,0.00,VWS V14.01,2013-03-18 10:00:00,
2013-03-18 06:04:00,32.2,28.5,30.05,ESE,113,8.0,18.0,86,0.00,,---,0.00,VWS V14.01,2013-03-18 10:04:00,
2013-03-18 06:09:00,32.3,28.9,30.05,SE,130,11.0,23.0,87,0.00,,---,0.00,VWS V14.01,2013-03-18 10:09:00,
2013-03-18 06:10:00,32.3,28.9,30.05,SE,130,11.0,23.0,87,0.00,,---,0.00,VWS V14.01,2013-03-18 10:10:00,
2013-03-18 06:14:00,32.0,28.9,30.04,SE,132,14.0,21.0,88,0.00,,---,0.00,VWS V14.01,2013-03-18 10:14:00,
2013-03-18 06:19:00,31.8,28.7,30.04,East,90,16.0,23.0,88,0.00,,---,0.00,VWS V14.01,2013-03-18 10:19:00,
2013-03-18 06:20:00,31.8,28.7,30.04,East,90,16.0,23.0,88,0.00,,---,0.00,VWS V14.01,2013-03-18 10:20:00,
2013-03-18 06:24:00,31.7,28.8,30.03,SE,142,17.0,24.0,89,0.00,,---,0.00,VWS V14.01,2013-03-18 10:24:00,
2013-03-18 06:29:00,31.6,28.7,30.03,ESE,114,18.0,24.0,89,0.00,,---,0.00,VWS V14.01,2013-03-18 10:29:00,
2013-03-18 06:30:00,31.6,28.7,30.03,ESE,114,18.0,24.0,89,0.00,,---,0.00,VWS V14.01,2013-03-18 10:30:00,
2013-03-18 06:34:00,31.7,28.8,30.02,ESE,108,24.0,24.0,89,0.00,,---,0.00,VWS V14.01,2013-03-18 10:34:00,
2013-03-18 06:39:00,31.8,28.7,30.03,SSE,157,9.0,24.0,88,0.00,,---,0.00,VWS V14.01,2013-03-18 10:39:00,
2013-03-18 06:40:00,31.8,28.7,30.03,SSE,157,9.0,24.0,88,0.00,,---,0.00,VWS V14.01,2013-03-18 10:40:00,
2013-03-18 06:44:00,31.8,28.7,30.03,ENE,57,15.0,23.0,88,0.00,,---,0.00,VWS V14.01,2013-03-18 10:44:00,
2013-03-18 06:49:00,31.8,28.7,30.03,SE,140,15.0,15.0,88,0.00,,---,0.00,VWS V14.01,2013-03-18 10:49:00,
2013-03-18 06:50:00,31.8,28.7,30.02,SE,142,13.0,24.0,88,0.00,,---,0.00,VWS V14.01,2013-03-18 10:50:00,
2013-03-18 06:54:00,31.9,28.8,30.02,SE,137,11.0,28.0,88,0.00,,---,0.00,VWS V14.01,2013-03-18 10:54:00,
2013-03-18 06:59:00,32.0,28.6,30.01,SSE,150,10.0,16.0,87,0.00,,---,0.00,VWS V14.01,2013-03-18 10:59:00,
2013-03-18 07:00:00,32.0,28.6,30.02,SSE,164,16.0,28.0,87,0.00,,---,0.00,VWS V14.01,2013-03-18 11:00:00,
2013-03-18 07:04:00,32.1,28.1,30.02,SE,129,19.0,25.0,85,0.00,,---,0.00,VWS V14.01,2013-03-18 11:04:00,
2013-03-18 07:09:00,32.3,28.0,30.01,SE,139,11.0,13.0,84,0.00,,---,0.00,VWS V14.01,2013-03-18 11:09:00,
2013-03-18 07:10:00,32.3,28.0,30.01,ESE,116,12.0,25.0,84,0.00,,---,0.00,VWS V14.01,2013-03-18 11:10:00,
2013-03-18 07:14:00,32.5,27.9,30.00,East,96,24.0,24.0,83,0.00,,---,0.00,VWS V14.01,2013-03-18 11:14:00,
2013-03-18 07:19:00,32.7,27.8,30.00,SE,133,14.0,15.0,82,0.00,,---,0.00,VWS V14.01,2013-03-18 11:19:00,
2013-03-18 07:20:00,32.7,27.8,30.00,SE,139,11.0,24.0,82,0.00,,---,0.00,VWS V14.01,2013-03-18 11:20:00,
2013-03-18 07:24:00,32.8,27.6,30.00,ESE,120,6.0,24.0,81,0.00,,---,0.00,VWS V14.01,2013-03-18 11:24:00,
2013-03-18 07:29:00,32.8,27.6,30.00,SE,126,13.0,18.0,81,0.00,,---,0.00,VWS V14.01,2013-03-18 11:29:00,
2013-03-18 07:30:00,32.8,27.6,30.00,SSE,150,17.0,24.0,81,0.00,,---,0.00,VWS V14.01,2013-03-18 11:30:00,
2013-03-18 07:34:00,32.9,27.4,30.00,South,172,11.0,25.0,80,0.00,,---,0.00,VWS V14.01,2013-03-18 11:34:00,
2013-03-18 07:39:00,33.0,27.2,30.00,SE,128,7.0,11.0,79,0.00,,---,0.00,VWS V14.01,2013-03-18 11:39:00,
2013-03-18 07:40:00,33.0,27.2,30.00,ESE,111,11.0,25.0,79,0.00,,---,0.00,VWS V14.01,2013-03-18 11:40:00,
2013-03-18 07:44:00,33.1,27.3,30.00,SSE,160,7.0,24.0,79,0.00,,---,0.00,VWS V14.01,2013-03-18 11:44:00,
2013-03-18 07:49:00,33.1,27.3,29.98,SE,137,13.0,13.0,79,0.00,,---,0.00,VWS V14.01,2013-03-18 11:49:00,
2013-03-18 07:50:00,33.1,27.3,29.98,SE,128,12.0,24.0,79,0.00,,---,0.00,VWS V14.01,2013-03-18 11:50:00,
2013-03-18 07:54:00,33.2,27.4,29.99,SE,138,4.0,20.0,79,0.00,,---,0.00,VWS V14.01,2013-03-18 11:54:00,
2013-03-18 07:59:00,33.3,27.2,29.99,SE,140,10.0,12.0,78,0.00,,---,0.00,VWS V14.01,2013-03-18 11:59:00,
2013-03-18 08:00:00,33.3,27.2,29.99,ESE,103,9.0,20.0,78,0.00,,---,0.00,VWS V14.01,2013-03-18 12:00:00,
2013-03-18 08:04:00,33.5,27.4,29.98,SE,145,17.0,24.0,78,0.00,,---,0.00,VWS V14.01,2013-03-18 12:04:00,
2013-03-18 08:09:00,33.5,27.1,29.97,ESE,119,12.0,21.0,77,0.00,,---,0.00,VWS V14.01,2013-03-18 12:09:00,
2013-03-18 08:10:00,33.5,27.4,29.97,SE,143,17.0,26.0,78,0.00,,---,0.00,VWS V14.01,2013-03-18 12:10:00,
2013-03-18 08:14:00,33.6,27.2,29.97,SSE,149,14.0,21.0,77,0.00,,---,0.00,VWS V14.01,2013-03-18 12:14:00,
2013-03-18 08:20:00,33.7,27.3,29.97,SE,134,8.0,13.0,77,0.00,,---,0.00,VWS V14.01,2013-03-18 12:20:00,
2013-03-18 08:25:00,33.8,27.0,29.97,SE,140,12.0,28.0,76,0.00,,---,0.00,VWS V14.01,2013-03-18 12:25:00,
2013-03-18 08:30:00,33.7,27.3,29.97,ENE,70,6.0,13.0,77,0.00,,---,0.00,VWS V14.01,2013-03-18 12:30:00,
2013-03-18 08:35:00,33.8,27.0,29.97,ESE,112,12.0,23.0,76,0.00,,---,0.00,VWS V14.01,2013-03-18 12:35:00,
2013-03-18 08:40:00,33.9,27.1,29.95,ENE,78,11.0,21.0,76,0.00,,---,0.00,VWS V14.01,2013-03-18 12:40:00,
2013-03-18 08:45:00,33.9,27.1,29.95,SSW,195,10.0,21.0,76,0.00,,---,0.00,VWS V14.01,2013-03-18 12:45:00,
2013-03-18 08:50:00,34.0,26.9,29.94,SSE,152,16.0,27.0,75,0.00,,---,0.00,VWS V14.01,2013-03-18 12:50:00,
2013-03-18 08:55:00,34.2,27.1,29.94,SE,128,17.0,31.0,75,0.00,,---,0.00,VWS V14.01,2013-03-18 12:55:00,
2013-03-18 09:00:00,34.3,27.2,29.93,SE,126,19.0,23.0,75,0.00,,---,0.00,VWS V14.01,2013-03-18 13:00:00,
2013-03-18 09:05:00,34.3,27.2,29.93,South,169,12.0,29.0,75,0.00,,---,0.00,VWS V14.01,2013-03-18 13:05:00,
2013-03-18 09:10:00,34.4,27.3,29.94,East,96,11.0,16.0,75,0.00,,---,0.00,VWS V14.01,2013-03-18 13:10:00,
2013-03-18 09:15:00,34.3,27.5,29.93,SE,134,15.0,23.0,76,0.00,,---,0.00,VWS V14.01,2013-03-18 13:15:00,
2013-03-18 09:20:00,34.2,27.1,29.93,SSE,165,7.0,23.0,75,0.00,,---,0.00,VWS V14.01,2013-03-18 13:20:00,
2013-03-18 09:25:00,34.1,27.0,29.92,ESE,121,18.0,32.0,75,0.00,,---,0.00,VWS V14.01,2013-03-18 13:25:00,
2013-03-18 09:30:00,34.0,27.2,29.93,ESE,115,7.0,16.0,76,0.00,,---,0.00,VWS V14.01,2013-03-18 13:30:00,
2013-03-18 09:35:00,33.9,27.1,29.93,SE,136,6.0,30.0,76,0.00,,---,0.00,VWS V14.01,2013-03-18 13:35:00,
2013-03-18 09:40:00,33.9,27.5,29.93,East,84,18.0,18.0,77,0.00,,---,0.00,VWS V14.01,2013-03-18 13:40:00,
2013-03-18 09:45:00,33.8,27.4,29.93,SSE,148,7.0,25.0,77,0.00,,---,0.00,VWS V14.01,2013-03-18 13:45:00,
2013-03-18 09:50:00,33.7,27.3,29.93,East,96,11.0,18.0,77,0.00,,---,0.00,VWS V14.01,2013-03-18 13:50:00,
2013-03-18 09:55:00,33.8,27.4,29.92,SE,137,15.0,23.0,77,0.00,,---,0.00,VWS V14.01,2013-03-18 13:55:00,
2013-03-18 10:00:00,33.8,27.4,29.92,ESE,123,12.0,23.0,77,0.00,,---,0.00,VWS V14.01,2013-03-18 14:00:00,
2013-03-18 10:05:00,33.8,27.4,29.92,SE,132,14.0,29.0,77,0.00,,---,0.00,VWS V14.01,2013-03-18 14:05:00,
2013-03-18 10:10:00,33.8,27.4,29.93,SSW,196,10.0,23.0,77,0.00,,---,0.00,VWS V14.01,2013-03-18 14:10:00,
2013-03-18 10:15:00,33.8,27.4,29.94,SE,137,14.0,23.0,77,0.00,,---,0.00,VWS V14.01,2013-03-18 14:15:00,
2013-03-18 10:20:00,33.8,27.4,29.94,South,191,10.0,15.0,77,0.00,,---,0.00,VWS V14.01,2013-03-18 14:20:00,
2013-03-18 10:25:00,33.8,27.4,29.93,ESE,123,19.0,27.0,77,0.00,,---,0.00,VWS V14.01,2013-03-18 14:25:00,
2013-03-18 10:30:00,33.9,27.1,29.94,SSW,194,7.0,21.0,76,0.00,,---,0.00,VWS V14.01,2013-03-18 14:30:00,
2013-03-18 10:35:00,33.9,27.5,29.95,SSW,195,7.0,32.0,77,0.00,,---,0.00,VWS V14.01,2013-03-18 14:35:00,
2013-03-18 10:40:00,33.8,27.4,29.95,SSW,194,4.0,12.0,77,0.00,,---,0.00,VWS V14.01,2013-03-18 14:40:00,
2013-03-18 10:45:00,33.9,27.5,29.95,SSW,194,5.0,24.0,77,0.00,,---,0.00,VWS V14.01,2013-03-18 14:45:00,
2013-03-18 10:50:00,34.0,27.2,29.94,SSW,194,5.0,13.0,76,0.00,,---,0.00,VWS V14.01,2013-03-18 14:50:00,
2013-03-18 10:55:00,34.2,27.4,29.94,SSW,194,9.0,26.0,76,0.00,,---,0.00,VWS V14.01,2013-03-18 14:55:00,
2013-03-18 11:00:00,34.1,27.3,29.92,SSW,194,7.0,22.0,76,0.00,,---,0.00,VWS V14.01,2013-03-18 15:00:00,
2013-03-18 11:05:00,34.0,27.6,29.93,SSW,194,12.0,22.0,77,0.00,,---,0.00,VWS V14.01,2013-03-18 15:05:00,
2013-03-18 11:10:00,34.2,27.8,29.94,SSW,194,15.0,18.0,77,0.00,,---,0.00,VWS V14.01,2013-03-18 15:10:00,
2013-03-18 11:15:00,34.2,27.8,29.93,SSW,194,10.0,22.0,77,0.00,,---,0.00,VWS V14.01,2013-03-18 15:15:00,
2013-03-18 11:20:00,34.2,27.8,29.93,SSW,194,13.0,23.0,77,0.00,,---,0.00,VWS V14.01,2013-03-18 15:20:00,
2013-03-18 11:25:00,34.0,27.9,29.94,SSW,194,10.0,23.0,78,0.00,,---,0.00,VWS V14.01,2013-03-18 15:25:00,
2013-03-18 11:30:00,34.0,28.2,29.93,SSW,194,15.0,27.0,79,0.00,,---,0.00,VWS V14.01,2013-03-18 15:30:00,
2013-03-18 11:35:00,33.7,28.5,29.92,SSW,195,13.0,27.0,81,0.00,,---,0.00,VWS V14.01,2013-03-18 15:35:00,
2013-03-18 11:40:00,33.7,28.8,29.92,SSW,194,9.0,24.0,82,0.00,,---,0.00,VWS V14.01,2013-03-18 15:40:00,
2013-03-18 11:45:00,33.7,29.1,29.90,SSW,194,10.0,24.0,83,0.00,,---,0.00,VWS V14.01,2013-03-18 15:45:00,
2013-03-18 11:50:00,33.8,29.2,29.89,SSW,194,11.0,30.0,83,0.00,,---,0.00,VWS V14.01,2013-03-18 15:50:00,
2013-03-18 11:55:00,34.0,29.4,29.88,SSW,194,23.0,30.0,83,0.00,,---,0.00,VWS V14.01,2013-03-18 15:55:00,
2013-03-18 12:00:00,34.0,29.7,29.87,SSW,194,17.0,26.0,84,0.00,,---,0.00,VWS V14.01,2013-03-18 16:00:00,
2013-03-18 12:05:00,34.0,30.0,29.87,SSW,194,21.0,32.0,85,0.00,,---,0.00,VWS V14.01,2013-03-18 16:05:00,
2013-03-18 12:10:00,34.1,29.8,29.86,SSW,194,17.0,33.0,84,0.00,,---,0.00,VWS V14.01,2013-03-18 16:10:00,
2013-03-18 12:11:00,34.1,30.1,29.86,SSW,194,13.0,24.0,85,0.00,,---,0.00,VWS V14.01,2013-03-18 16:11:00,
2013-03-18 12:16:00,34.4,30.1,29.84,SSW,194,10.0,29.0,84,0.00,,---,0.00,VWS V14.01,2013-03-18 16:16:00,
2013-03-18 12:20:00,34.4,30.4,29.83,SSW,194,18.0,29.0,85,0.00,,---,0.00,VWS V14.01,2013-03-18 16:20:00,
2013-03-18 12:21:00,34.4,30.1,29.84,SSW,194,18.0,22.0,84,0.00,,---,0.00,VWS V14.01,2013-03-18 16:21:00,
2013-03-18 12:26:00,34.8,30.5,29.84,SE,146,29.0,44.0,84,0.00,,---,0.00,VWS V14.01,2013-03-18 16:26:00,
2013-03-18 12:30:00,35.0,30.7,29.83,SSE,153,26.0,44.0,84,0.00,,---,0.00,VWS V14.01,2013-03-18 16:30:00,
2013-03-18 12:31:00,34.9,30.6,29.84,SSE,157,17.0,33.0,84,0.00,,---,0.00,VWS V14.01,2013-03-18 16:31:00,
2013-03-18 12:36:00,35.1,30.8,29.83,SE,132,18.0,36.0,84,0.00,,---,0.00,VWS V14.01,2013-03-18 16:36:00,
2013-03-18 12:40:00,35.1,30.8,29.83,SE,134,33.0,36.0,84,0.00,,---,0.00,VWS V14.01,2013-03-18 16:40:00,
2013-03-18 12:41:00,35.1,30.8,29.83,SSE,154,16.0,33.0,84,0.00,,---,0.00,VWS V14.01,2013-03-18 16:41:00,
2013-03-18 12:46:00,35.4,30.8,29.83,SE,131,23.0,46.0,83,0.00,,---,0.00,VWS V14.01,2013-03-18 16:46:00,
2013-03-18 12:50:00,35.4,31.4,29.85,SW,225,16.0,46.0,85,0.00,,---,0.00,VWS V14.01,2013-03-18 16:50:00,
2013-03-18 12:51:00,35.5,31.1,29.85,SSE,167,10.0,19.0,84,0.00,,---,0.00,VWS V14.01,2013-03-18 16:51:00,
2013-03-18 12:56:00,35.6,31.2,29.85,SW,217,6.0,30.0,84,0.01,,---,0.01,VWS V14.01,2013-03-18 16:56:00,
2013-03-18 13:00:00,35.7,31.4,29.86,East,94,9.0,30.0,84,0.01,,---,0.01,VWS V14.01,2013-03-18 17:00:00,
2013-03-18 13:01:00,35.7,31.4,29.85,South,171,20.0,33.0,84,0.01,,---,0.01,VWS V14.01,2013-03-18 17:01:00,
2013-03-18 13:06:00,35.9,31.5,29.87,SSE,161,16.0,33.0,84,0.01,,---,0.01,VWS V14.01,2013-03-18 17:06:00,
2013-03-18 13:10:00,36.1,31.5,29.88,SSE,163,13.0,33.0,83,0.01,,---,0.01,VWS V14.01,2013-03-18 17:10:00,
2013-03-18 13:11:00,36.3,31.3,29.88,SE,136,19.0,23.0,82,0.01,,---,0.01,VWS V14.01,2013-03-18 17:11:00,
2013-03-18 13:16:00,36.7,31.7,29.90,South,176,7.0,33.0,82,0.01,,---,0.01,VWS V14.01,2013-03-18 17:16:00,
2013-03-18 13:20:00,36.8,32.1,29.90,SSE,150,6.0,33.0,83,0.01,,---,0.01,VWS V14.01,2013-03-18 17:20:00,
2013-03-18 13:21:00,36.9,32.2,29.89,SE,132,11.0,21.0,83,0.02,,---,0.02,VWS V14.01,2013-03-18 17:21:00,
2013-03-18 13:27:00,37.1,32.1,29.91,SE,134,8.0,21.0,82,0.03,,---,0.03,VWS V14.01,2013-03-18 17:27:00,
2013-03-18 13:30:00,37.1,32.4,29.90,South,184,13.0,21.0,83,0.04,,---,0.04,VWS V14.01,2013-03-18 17:30:00,
2013-03-18 13:32:00,37.1,32.4,29.90,SE,129,7.0,15.0,83,0.04,,---,0.04,VWS V14.01,2013-03-18 17:32:00,
2013-03-18 13:37:00,36.8,32.4,29.91,SSW,195,3.0,15.0,84,0.06,,---,0.06,VWS V14.01,2013-03-18 17:37:00,
2013-03-18 13:40:00,36.8,32.7,29.91,SW,217,12.0,15.0,85,0.06,,---,0.06,VWS V14.01,2013-03-18 17:40:00,
2013-03-18 13:42:00,36.9,32.5,29.90,SSE,167,10.0,16.0,84,0.06,,---,0.06,VWS V14.01,2013-03-18 17:42:00,
2013-03-18 13:47:00,36.8,32.4,29.90,SSE,167,9.0,16.0,84,0.07,,---,0.07,VWS V14.01,2013-03-18 17:47:00,
2013-03-18 13:50:00,36.8,32.4,29.90,SSW,194,6.0,16.0,84,0.07,,---,0.07,VWS V14.01,2013-03-18 17:50:00,
2013-03-18 13:52:00,37.1,32.4,29.89,SSE,165,15.0,20.0,83,0.07,,---,0.07,VWS V14.01,2013-03-18 17:52:00,
2013-03-18 13:57:00,37.3,32.3,29.89,SE,142,13.0,20.0,82,0.07,,---,0.07,VWS V14.01,2013-03-18 17:57:00,
2013-03-18 14:00:00,37.5,32.5,29.88,SE,140,19.0,22.0,82,0.07,,---,0.07,VWS V14.01,2013-03-18 18:00:00,
2013-03-18 14:02:00,37.7,32.4,29.88,SSE,161,11.0,19.0,81,0.06,,---,0.07,VWS V14.01,2013-03-18 18:02:00,
2013-03-18 14:07:00,37.5,32.2,29.88,SE,135,14.0,20.0,81,0.06,,---,0.07,VWS V14.01,2013-03-18 18:07:00,
2013-03-18 14:10:00,37.4,31.8,29.87,SSE,161,11.0,20.0,80,0.06,,---,0.07,VWS V14.01,2013-03-18 18:10:00,
2013-03-18 14:12:00,37.2,31.9,29.87,South,178,12.0,23.0,81,0.06,,---,0.07,VWS V14.01,2013-03-18 18:12:00,
2013-03-18 14:17:00,37.2,32.2,29.84,SSE,157,19.0,27.0,82,0.06,,---,0.07,VWS V14.01,2013-03-18 18:17:00,
2013-03-18 14:20:00,37.2,32.2,29.84,SSE,163,19.0,31.0,82,0.06,,---,0.07,VWS V14.01,2013-03-18 18:20:00,
2013-03-18 14:22:00,37.2,31.9,29.82,SE,139,23.0,30.0,81,0.06,,---,0.07,VWS V14.01,2013-03-18 18:22:00,
2013-03-18 14:27:00,37.0,31.4,29.84,South,172,15.0,30.0,80,0.06,,---,0.07,VWS V14.01,2013-03-18 18:27:00,
2013-03-18 14:30:00,37.0,31.7,29.85,South,185,7.0,30.0,81,0.06,,---,0.07,VWS V14.01,2013-03-18 18:30:00,
2013-03-18 14:32:00,37.0,31.7,29.85,South,186,8.0,15.0,81,0.03,,---,0.07,VWS V14.01,2013-03-18 18:32:00,
2013-03-18 14:37:00,37.0,31.1,29.85,SE,144,7.0,24.0,79,0.03,,---,0.07,VWS V14.01,2013-03-18 18:37:00,
2013-03-18 14:40:00,37.1,31.5,29.84,SE,140,12.0,24.0,80,0.03,,---,0.07,VWS V14.01,2013-03-18 18:40:00,
2013-03-18 14:42:00,37.3,32.0,29.85,South,178,23.0,23.0,81,0.01,,---,0.07,VWS V14.01,2013-03-18 18:42:00,
2013-03-18 14:47:00,37.9,32.0,29.84,SE,134,15.0,28.0,79,0.01,,---,0.07,VWS V14.01,2013-03-18 18:47:00,
2013-03-18 14:50:00,37.9,31.4,29.84,SSE,149,21.0,28.0,77,0.01,,---,0.07,VWS V14.01,2013-03-18 18:50:00,
2013-03-18 14:52:00,37.8,31.6,29.85,SSE,167,15.0,21.0,78,0.00,,---,0.07,VWS V14.01,2013-03-18 18:52:00,
2013-03-18 14:57:00,37.5,31.3,29.84,SSE,163,7.0,21.0,78,0.00,,---,0.07,VWS V14.01,2013-03-18 18:57:00,
2013-03-18 15:00:00,37.6,31.4,29.84,SE,134,13.0,21.0,78,0.00,,---,0.07,VWS V14.01,2013-03-18 19:00:00,
2013-03-18 15:02:00,37.5,31.3,29.85,SE,139,10.0,20.0,78,0.00,,---,0.07,VWS V14.01,2013-03-18 19:02:00,
2013-03-18 15:07:00,37.7,31.5,29.84,SSE,147,18.0,23.0,78,0.00,,---,0.07,VWS V14.01,2013-03-18 19:07:00,
2013-03-18 15:10:00,37.7,31.5,29.84,SSE,147,11.0,23.0,78,0.00,,---,0.07,VWS V14.01,2013-03-18 19:10:00,
2013-03-18 15:12:00,37.7,31.5,29.83,SE,139,18.0,22.0,78,0.00,,---,0.07,VWS V14.01,2013-03-18 19:12:00,
2013-03-18 15:17:00,37.7,31.5,29.83,SSE,163,15.0,28.0,78,0.00,,---,0.07,VWS V14.01,2013-03-18 19:17:00,
2013-03-18 15:20:00,37.7,31.5,29.82,SE,142,19.0,28.0,78,0.00,,---,0.07,VWS V14.01,2013-03-18 19:20:00,
2013-03-18 15:22:00,38.1,32.2,29.82,South,189,8.0,20.0,79,0.00,,---,0.07,VWS V14.01,2013-03-18 19:22:00,
2013-03-18 15:27:00,37.9,32.3,29.82,SE,132,9.0,21.0,80,0.00,,---,0.07,VWS V14.01,2013-03-18 19:27:00,
2013-03-18 15:30:00,37.9,32.3,29.82,ESE,117,15.0,23.0,80,0.00,,---,0.07,VWS V14.01,2013-03-18 19:30:00,
2013-03-18 15:32:00,38.3,33.3,29.82,SSE,159,17.0,21.0,82,0.00,,---,0.07,VWS V14.01,2013-03-18 19:32:00,
2013-03-18 15:37:00,38.5,32.9,29.83,SSW,202,8.0,21.0,80,0.00,,---,0.07,VWS V14.01,2013-03-18 19:37:00,
2013-03-18 15:40:00,38.5,33.2,29.83,South,171,7.0,21.0,81,0.00,,---,0.07,VWS V14.01,2013-03-18 19:40:00,
2013-03-18 15:42:00,38.6,33.0,29.82,SSE,147,12.0,19.0,80,0.00,,---,0.07,VWS V14.01,2013-03-18 19:42:00,
2013-03-18 15:47:00,38.6,33.0,29.81,SE,141,15.0,19.0,80,0.00,,---,0.07,VWS V14.01,2013-03-18 19:47:00,
2013-03-18 15:50:00,38.7,32.8,29.82,SSW,192,4.0,19.0,79,0.00,,---,0.07,VWS V14.01,2013-03-18 19:50:00,
2013-03-18 15:52:00,38.9,33.6,29.82,SE,141,6.0,15.0,81,0.00,,---,0.07,VWS V14.01,2013-03-18 19:52:00,
2013-03-18 15:57:00,39.2,33.2,29.81,East,89,7.0,18.0,79,0.00,,---,0.07,VWS V14.01,2013-03-18 19:57:00,
2013-03-18 16:00:00,39.1,33.2,29.81,SSE,150,7.0,18.0,79,0.00,,---,0.07,VWS V14.01,2013-03-18 20:00:00,
2013-03-18 16:02:00,39.1,33.5,29.80,SSE,163,7.0,16.0,80,0.00,,---,0.07,VWS V14.01,2013-03-18 20:02:00,
2013-03-18 16:07:00,39.2,33.2,29.80,SSE,163,12.0,22.0,79,0.00,,---,0.07,VWS V14.01,2013-03-18 20:07:00,
2013-03-18 16:10:00,39.1,33.2,29.80,SSE,150,15.0,22.0,79,0.00,,---,0.07,VWS V14.01,2013-03-18 20:10:00,
2013-03-18 16:12:00,38.9,33.0,29.80,SSE,148,10.0,20.0,79,0.00,,---,0.07,VWS V14.01,2013-03-18 20:12:00,
2013-03-18 16:17:00,38.9,33.0,29.80,SE,128,16.0,25.0,79,0.00,,---,0.07,VWS V14.01,2013-03-18 20:17:00,
2013-03-18 16:20:00,38.9,32.6,29.80,SE,137,13.0,25.0,78,0.00,,---,0.07,VWS V14.01,2013-03-18 20:20:00,
2013-03-18 16:22:00,38.9,33.0,29.80,SSE,167,18.0,25.0,79,0.00,,---,0.07,VWS V14.01,2013-03-18 20:22:00,
2013-03-18 16:27:00,38.9,33.0,29.80,SSE,160,12.0,25.0,79,0.00,,---,0.07,VWS V14.01,2013-03-18 20:27:00,
2013-03-18 16:30:00,38.9,33.3,29.80,SE,142,7.0,25.0,80,0.00,,---,0.07,VWS V14.01,2013-03-18 20:30:00,
2013-03-18 16:33:00,39.1,33.2,29.80,SSE,164,11.0,21.0,79,0.00,,---,0.07,VWS V14.01,2013-03-18 20:33:00,
2013-03-18 16:38:00,39.3,33.3,29.80,SSW,200,9.0,21.0,79,0.00,,---,0.07,VWS V14.01,2013-03-18 20:38:00,
2013-03-18 16:40:00,39.3,33.3,29.80,SSE,157,10.0,21.0,79,0.00,,---,0.07,VWS V14.01,2013-03-18 20:40:00,
2013-03-18 16:43:00,39.2,33.2,29.80,South,180,6.0,13.0,79,0.00,,---,0.07,VWS V14.01,2013-03-18 20:43:00,
2013-03-18 16:48:00,39.3,33.3,29.80,SSE,168,10.0,17.0,79,0.00,,---,0.07,VWS V14.01,2013-03-18 20:48:00,
2013-03-18 16:50:00,39.3,33.3,29.80,South,170,7.0,17.0,79,0.00,,---,0.07,VWS V14.01,2013-03-18 20:50:00,
2013-03-18 16:53:00,39.4,33.4,29.79,SE,133,17.0,17.0,79,0.00,,---,0.07,VWS V14.01,2013-03-18 20:53:00,
2013-03-18 16:58:00,39.7,33.4,29.77,SSE,157,12.0,30.0,78,0.00,,---,0.07,VWS V14.01,2013-03-18 20:58:00,
2013-03-18 17:00:00,39.8,33.5,29.77,SE,135,13.0,30.0,78,0.00,,---,0.07,VWS V14.01,2013-03-18 21:00:00,
2013-03-18 17:03:00,39.8,33.5,29.77,SSE,150,9.0,17.0,78,0.00,,---,0.07,VWS V14.01,2013-03-18 21:03:00,
2013-03-18 17:08:00,40.0,33.7,29.76,SSE,150,8.0,18.0,78,0.00,,---,0.07,VWS V14.01,2013-03-18 21:08:00,
2013-03-18 17:10:00,40.0,33.7,29.76,East,86,10.0,24.0,78,0.00,,---,0.07,VWS V14.01,2013-03-18 21:10:00,
2013-03-18 17:13:00,40.0,33.4,29.75,SSE,161,18.0,23.0,77,0.00,,---,0.07,VWS V14.01,2013-03-18 21:13:00,
2013-03-18 17:18:00,39.8,33.2,29.75,South,169,22.0,24.0,77,0.00,,---,0.07,VWS V14.01,2013-03-18 21:18:00,
2013-03-18 17:20:00,39.7,33.1,29.75,SE,137,19.0,24.0,77,0.00,,---,0.07,VWS V14.01,2013-03-18 21:20:00,
2013-03-18 17:23:00,39.7,33.1,29.76,SSE,159,13.0,21.0,77,0.00,,---,0.07,VWS V14.01,2013-03-18 21:23:00,
2013-03-18 17:28:00,39.7,33.4,29.76,SE,134,13.0,21.0,78,0.00,,---,0.07,VWS V14.01,2013-03-18 21:28:00,
2013-03-18 17:30:00,39.8,33.2,29.76,South,179,11.0,21.0,77,0.00,,---,0.07,VWS V14.01,2013-03-18 21:30:00,
2013-03-18 17:33:00,39.7,33.1,29.76,ESE,121,13.0,20.0,77,0.00,,---,0.07,VWS V14.01,2013-03-18 21:33:00,
2013-03-18 17:38:00,39.7,32.8,29.76,SSE,153,12.0,21.0,76,0.00,,---,0.07,VWS V14.01,2013-03-18 21:38:00,
2013-03-18 17:40:00,39.7,32.8,29.76,SSE,160,5.0,21.0,76,0.00,,---,0.07,VWS V14.01,2013-03-18 21:40:00,
2013-03-18 17:43:00,40.0,34.0,29.77,South,171,11.0,16.0,79,0.00,,---,0.07,VWS V14.01,2013-03-18 21:43:00,
2013-03-18 17:48:00,40.3,33.0,29.77,South,171,12.0,27.0,75,0.00,,---,0.07,VWS V14.01,2013-03-18 21:48:00,
2013-03-18 17:50:00,40.1,32.8,29.77,SSE,164,16.0,27.0,75,0.00,,---,0.07,VWS V14.01,2013-03-18 21:50:00,
2013-03-18 17:53:00,39.7,32.8,29.79,SE,134,11.0,18.0,76,0.00,,---,0.07,VWS V14.01,2013-03-18 21:53:00,
2013-03-18 17:58:00,39.5,32.9,29.78,ESE,118,8.0,18.0,77,0.00,,---,0.07,VWS V14.01,2013-03-18 21:58:00,
2013-03-18 18:00:00,39.4,32.8,29.78,SE,134,6.0,18.0,77,0.00,,---,0.07,VWS V14.01,2013-03-18 22:00:00,
2013-03-18 18:03:00,39.5,32.9,29.77,SSE,154,9.0,22.0,77,0.00,,---,0.07,VWS V14.01,2013-03-18 22:03:00,
2013-03-18 18:08:00,39.5,32.9,29.77,SE,130,8.0,22.0,77,0.00,,---,0.07,VWS V14.01,2013-03-18 22:08:00,
2013-03-18 18:10:00,39.5,32.9,29.77,SSE,165,10.0,22.0,77,0.00,,---,0.07,VWS V14.01,2013-03-18 22:10:00,
2013-03-18 18:13:00,39.5,32.9,29.77,SE,132,13.0,18.0,77,0.00,,---,0.07,VWS V14.01,2013-03-18 22:13:00,
2013-03-18 18:18:00,39.4,32.8,29.77,SSE,159,8.0,19.0,77,0.00,,---,0.07,VWS V14.01,2013-03-18 22:18:00,
2013-03-18 18:20:00,39.4,32.5,29.77,SSE,157,10.0,19.0,76,0.00,,---,0.07,VWS V14.01,2013-03-18 22:20:00,
2013-03-18 18:23:00,39.3,32.7,29.77,SSE,159,9.0,17.0,77,0.00,,---,0.07,VWS V14.01,2013-03-18 22:23:00,
2013-03-18 18:28:00,39.2,32.6,29.76,South,175,2.0,17.0,77,0.00,,---,0.07,VWS V14.01,2013-03-18 22:28:00,
2013-03-18 18:30:00,39.2,32.6,29.76,South,178,8.0,17.0,77,0.00,,---,0.07,VWS V14.01,2013-03-18 22:30:00,
2013-03-18 18:33:00,39.6,33.3,29.76,SSE,163,8.0,16.0,78,0.00,,---,0.07,VWS V14.01,2013-03-18 22:33:00,
2013-03-18 18:38:00,40.0,33.7,29.76,SSE,147,9.0,20.0,78,0.00,,---,0.07,VWS V14.01,2013-03-18 22:38:00,
2013-03-18 18:40:00,40.0,33.4,29.76,SE,126,17.0,20.0,77,0.00,,---,0.07,VWS V14.01,2013-03-18 22:40:00,
2013-03-18 18:43:00,40.1,33.5,29.76,SSE,157,9.0,17.0,77,0.00,,---,0.07,VWS V14.01,2013-03-18 22:43:00,
2013-03-18 18:48:00,39.9,33.6,29.76,South,183,9.0,18.0,78,0.00,,---,0.07,VWS V14.01,2013-03-18 22:48:00,
2013-03-18 18:50:00,39.9,33.3,29.76,ESE,115,9.0,18.0,77,0.00,,---,0.07,VWS V14.01,2013-03-18 22:50:00,
2013-03-18 18:53:00,39.9,33.3,29.76,East,86,6.0,13.0,77,0.00,,---,0.07,VWS V14.01,2013-03-18 22:53:00,
2013-03-18 18:58:00,39.7,33.1,29.76,SE,132,12.0,17.0,77,0.00,,---,0.07,VWS V14.01,2013-03-18 22:58:00,
2013-03-18 19:00:00,39.7,33.1,29.76,ESE,121,15.0,17.0,77,0.00,,---,0.07,VWS V14.01,2013-03-18 23:00:00,
2013-03-18 19:03:00,39.5,32.9,29.76,SE,141,8.0,20.0,77,0.00,,---,0.07,VWS V14.01,2013-03-18 23:03:00,
2013-03-18 19:08:00,39.1,32.8,29.76,SE,141,9.0,20.0,78,0.00,,---,0.07,VWS V14.01,2013-03-18 23:08:00,
2013-03-18 19:10:00,39.1,32.8,29.76,SE,140,11.0,20.0,78,0.00,,---,0.07,VWS V14.01,2013-03-18 23:10:00,
2013-03-18 19:13:00,39.3,33.0,29.76,SSE,150,14.0,22.0,78,0.00,,---,0.07,VWS V14.01,2013-03-18 23:13:00,
2013-03-18 19:18:00,39.1,32.8,29.75,SSE,147,12.0,22.0,78,0.00,,---,0.07,VWS V14.01,2013-03-18 23:18:00,
2013-03-18 19:20:00,39.0,32.7,29.75,SE,143,14.0,22.0,78,0.00,,---,0.07,VWS V14.01,2013-03-18 23:20:00,
2013-03-18 19:23:00,38.8,32.5,29.75,South,169,13.0,22.0,78,0.00,,---,0.07,VWS V14.01,2013-03-18 23:23:00,
2013-03-18 19:28:00,38.8,32.9,29.75,SSE,150,12.0,22.0,79,0.00,,---,0.07,VWS V14.01,2013-03-18 23:28:00,
2013-03-18 19:30:00,38.8,32.9,29.75,SE,132,11.0,22.0,79,0.00,,---,0.07,VWS V14.01,2013-03-18 23:30:00,
2013-03-18 19:33:00,39.0,33.0,29.75,SSW,204,8.0,15.0,79,0.00,,---,0.07,VWS V14.01,2013-03-18 23:33:00,
2013-03-18 19:38:00,39.1,33.2,29.74,SSE,159,12.0,20.0,79,0.00,,---,0.07,VWS V14.01,2013-03-18 23:38:00,
2013-03-18 19:40:00,39.1,33.2,29.74,South,170,7.0,20.0,79,0.00,,---,0.07,VWS V14.01,2013-03-18 23:40:00,
2013-03-18 19:43:00,39.2,33.2,29.75,SE,136,8.0,17.0,79,0.00,,---,0.07,VWS V14.01,2013-03-18 23:43:00,
2013-03-18 19:48:00,39.3,33.0,29.75,SE,132,12.0,18.0,78,0.00,,---,0.07,VWS V14.01,2013-03-18 23:48:00,
2013-03-18 19:50:00,39.3,33.0,29.75,SSE,157,12.0,18.0,78,0.00,,---,0.07,VWS V14.01,2013-03-18 23:50:00,
2013-03-18 19:53:00,39.4,33.4,29.75,SSE,157,8.0,19.0,79,0.00,,---,0.07,VWS V14.01,2013-03-18 23:53:00,
2013-03-18 19:58:00,39.7,33.7,29.75,SE,132,13.0,19.0,79,0.00,,---,0.07,VWS V14.01,2013-03-18 23:58:00,
2013-03-18 20:00:00,39.7,33.7,29.75,SSE,148,9.0,19.0,79,0.00,,---,0.07,VWS V14.01,2013-03-19 00:00:00,
2013-03-18 20:03:00,39.7,33.4,29.75,SSE,164,12.0,19.0,78,0.00,,---,0.07,VWS V14.01,2013-03-19 00:03:00,
2013-03-18 20:08:00,39.7,33.7,29.75,SE,135,8.0,19.0,79,0.00,,---,0.07,VWS V14.01,2013-03-19 00:08:00,
2013-03-18 20:10:00,39.8,33.8,29.75,South,178,9.0,19.0,79,0.00,,---,0.07,VWS V14.01,2013-03-19 00:10:00,
2013-03-18 20:13:00,40.1,33.8,29.74,SSE,150,14.0,15.0,78,0.00,,---,0.07,VWS V14.01,2013-03-19 00:13:00,
2013-03-18 20:19:00,40.2,33.9,29.74,South,171,6.0,18.0,78,0.00,,---,0.07,VWS V14.01,2013-03-19 00:19:00,
2013-03-18 20:20:00,40.2,33.9,29.74,SSE,164,5.0,18.0,78,0.00,,---,0.07,VWS V14.01,2013-03-19 00:20:00,
2013-03-18 20:23:00,40.4,34.1,29.73,South,175,13.0,16.0,78,0.00,,---,0.07,VWS V14.01,2013-03-19 00:23:00,
2013-03-18 20:29:00,40.5,33.9,29.74,South,169,9.0,16.0,77,0.00,,---,0.07,VWS V14.01,2013-03-19 00:29:00,
2013-03-18 20:30:00,40.4,33.8,29.74,SSW,192,7.0,16.0,77,0.00,,---,0.07,VWS V14.01,2013-03-19 00:30:00,
2013-03-18 20:34:00,40.6,34.3,29.73,SSE,163,6.0,13.0,78,0.00,,---,0.07,VWS V14.01,2013-03-19 00:34:00,
2013-03-18 20:39:00,40.7,34.1,29.74,SSE,155,15.0,15.0,77,0.00,,---,0.07,VWS V14.01,2013-03-19 00:39:00,
2013-03-18 20:40:00,40.7,34.1,29.74,South,180,8.0,15.0,77,0.00,,---,0.07,VWS V14.01,2013-03-19 00:40:00,
2013-03-18 20:44:00,40.8,34.2,29.74,SSW,192,9.0,18.0,77,0.00,,---,0.07,VWS V14.01,2013-03-19 00:44:00,
2013-03-18 20:49:00,40.6,34.0,29.74,SSE,168,9.0,18.0,77,0.00,,---,0.07,VWS V14.01,2013-03-19 00:49:00,
2013-03-18 20:50:00,40.6,34.0,29.74,SSE,167,8.0,18.0,77,0.00,,---,0.07,VWS V14.01,2013-03-19 00:50:00,
2013-03-18 20:54:00,40.7,34.1,29.74,SSE,154,13.0,20.0,77,0.00,,---,0.07,VWS V14.01,2013-03-19 00:54:00,
2013-03-18 20:59:00,40.8,34.2,29.73,SE,128,14.0,20.0,77,0.00,,---,0.07,VWS V14.01,2013-03-19 00:59:00,
2013-03-18 21:00:00,40.8,34.2,29.73,SSE,159,10.0,20.0,77,0.00,,---,0.07,VWS V14.01,2013-03-19 01:00:00,
2013-03-18 21:04:00,40.9,34.3,29.73,SE,140,7.0,15.0,77,0.00,,---,0.07,VWS V14.01,2013-03-19 01:04:00,
2013-03-18 21:09:00,41.1,34.5,29.73,SE,137,12.0,15.0,77,0.00,,---,0.07,VWS V14.01,2013-03-19 01:09:00,
2013-03-18 21:10:00,41.2,34.5,29.73,South,176,10.0,15.0,77,0.00,,---,0.07,VWS V14.01,2013-03-19 01:10:00,
2013-03-18 21:14:00,41.5,34.8,29.73,South,175,8.0,13.0,77,0.00,,---,0.07,VWS V14.01,2013-03-19 01:14:00,
2013-03-18 21:19:00,41.7,34.7,29.73,South,188,10.0,16.0,76,0.00,,---,0.07,VWS V14.01,2013-03-19 01:19:00,
2013-03-18 21:20:00,41.7,34.7,29.73,South,169,11.0,16.0,76,0.00,,---,0.07,VWS V14.01,2013-03-19 01:20:00,
2013-03-18 21:24:00,41.8,34.8,29.74,SSE,165,17.0,17.0,76,0.00,,---,0.07,VWS V14.01,2013-03-19 01:24:00,
2013-03-18 21:29:00,41.9,34.9,29.74,South,176,5.0,17.0,76,0.00,,---,0.07,VWS V14.01,2013-03-19 01:29:00,
2013-03-18 21:30:00,41.9,34.9,29.74,SE,128,9.0,17.0,76,0.00,,---,0.07,VWS V14.01,2013-03-19 01:30:00,
2013-03-18 21:34:00,41.8,34.8,29.73,SSE,167,7.0,15.0,76,0.00,,---,0.07,VWS V14.01,2013-03-19 01:34:00,
2013-03-18 21:39:00,42.1,35.4,29.74,SSW,205,9.0,18.0,77,0.00,,---,0.07,VWS V14.01,2013-03-19 01:39:00,
2013-03-18 21:40:00,42.1,35.4,29.74,South,179,11.0,18.0,77,0.00,,---,0.07,VWS V14.01,2013-03-19 01:40:00,
2013-03-18 21:44:00,42.2,35.2,29.73,SSW,207,8.0,15.0,76,0.00,,---,0.07,VWS V14.01,2013-03-19 01:44:00,
2013-03-18 21:49:00,42.3,35.6,29.73,SE,137,7.0,16.0,77,0.00,,---,0.07,VWS V14.01,2013-03-19 01:49:00,
2013-03-18 21:50:00,42.3,35.6,29.73,SE,137,7.0,16.0,77,0.00,,---,0.07,VWS V14.01,2013-03-19 01:50:00,
2013-03-18 21:54:00,42.4,35.7,29.73,East,98,9.0,11.0,77,0.00,,---,0.07,VWS V14.01,2013-03-19 01:54:00,
2013-03-18 21:59:00,42.8,36.4,29.72,SSW,196,6.0,14.0,78,0.00,,---,0.07,VWS V14.01,2013-03-19 01:59:00,
2013-03-18 22:00:00,42.8,36.4,29.72,SSW,196,6.0,14.0,78,0.00,,---,0.07,VWS V14.01,2013-03-19 02:00:00,
2013-03-18 22:04:00,43.1,36.7,29.73,SSW,213,5.0,9.0,78,0.00,,---,0.07,VWS V14.01,2013-03-19 02:04:00,
2013-03-18 22:09:00,43.3,36.9,29.73,SSE,147,8.0,9.0,78,0.00,,---,0.07,VWS V14.01,2013-03-19 02:09:00,
2013-03-18 22:10:00,43.3,36.9,29.73,SSE,159,9.0,11.0,78,0.00,,---,0.07,VWS V14.01,2013-03-19 02:10:00,
2013-03-18 22:14:00,43.6,36.5,29.73,SSE,156,9.0,12.0,76,0.00,,---,0.07,VWS V14.01,2013-03-19 02:14:00,
2013-03-18 22:19:00,43.6,36.5,29.72,SSW,194,6.0,12.0,76,0.00,,---,0.07,VWS V14.01,2013-03-19 02:19:00,
2013-03-18 22:20:00,43.6,36.5,29.72,SSW,194,6.0,12.0,76,0.00,,---,0.07,VWS V14.01,2013-03-19 02:20:00,
2013-03-18 22:24:00,43.6,36.5,29.72,SSE,152,6.0,9.0,76,0.00,,---,0.07,VWS V14.01,2013-03-19 02:24:00,
2013-03-18 22:29:00,43.6,36.5,29.72,SSE,148,2.0,2.0,76,0.00,,---,0.07,VWS V14.01,2013-03-19 02:29:00,
2013-03-18 22:30:00,43.6,36.5,29.72,SE,145,2.0,9.0,76,0.00,,---,0.07,VWS V14.01,2013-03-19 02:30:00,
2013-03-18 22:34:00,43.7,37.0,29.72,SE,132,0.0,4.0,77,0.00,,---,0.07,VWS V14.01,2013-03-19 02:34:00,
2013-03-18 22:39:00,43.9,37.2,29.72,ESE,123,2.0,2.0,77,0.00,,---,0.07,VWS V14.01,2013-03-19 02:39:00,
2013-03-18 22:40:00,43.9,37.2,29.71,ESE,118,1.0,4.0,77,0.00,,---,0.07,VWS V14.01,2013-03-19 02:40:00,
2013-03-18 22:44:00,44.3,37.9,29.71,SE,124,0.0,3.0,78,0.00,,---,0.07,VWS V14.01,2013-03-19 02:44:00,
2013-03-18 22:49:00,45.0,38.9,29.71,SSW,207,3.0,3.0,79,0.00,,---,0.07,VWS V14.01,2013-03-19 02:49:00,
2013-03-18 22:50:00,44.9,38.8,29.71,SSW,196,3.0,7.0,79,0.00,,---,0.07,VWS V14.01,2013-03-19 02:50:00,
2013-03-18 22:54:00,45.9,39.4,29.71,SE,132,1.0,6.0,78,0.00,,---,0.07,VWS V14.01,2013-03-19 02:54:00,
2013-03-18 22:59:00,46.3,39.8,29.71,SSW,206,2.0,3.0,78,0.00,,---,0.07,VWS V14.01,2013-03-19 02:59:00,
2013-03-18 23:00:00,46.3,39.8,29.71,SW,222,3.0,6.0,78,0.00,,---,0.07,VWS V14.01,2013-03-19 03:00:00,
2013-03-18 23:04:00,47.0,40.2,29.71,South,188,1.0,6.0,77,0.00,,---,0.07,VWS V14.01,2013-03-19 03:04:00,
2013-03-18 23:09:00,47.4,40.6,29.70,South,185,3.0,3.0,77,0.00,,---,0.07,VWS V14.01,2013-03-19 03:09:00,
2013-03-18 23:10:00,47.4,40.6,29.71,SSW,203,3.0,6.0,77,0.00,,---,0.07,VWS V14.01,2013-03-19 03:10:00,
2013-03-18 23:14:00,47.7,40.8,29.71,West,263,3.0,7.0,77,0.00,,---,0.07,VWS V14.01,2013-03-19 03:14:00,
2013-03-18 23:19:00,48.1,41.2,29.70,SW,222,2.0,3.0,77,0.00,,---,0.07,VWS V14.01,2013-03-19 03:19:00,
2013-03-18 23:20:00,48.1,41.2,29.70,SW,226,3.0,8.0,77,0.00,,---,0.07,VWS V14.01,2013-03-19 03:20:00,
2013-03-18 23:24:00,48.5,41.6,29.71,SSW,205,4.0,7.0,77,0.00,,---,0.07,VWS V14.01,2013-03-19 03:24:00,
2013-03-18 23:29:00,48.9,42.0,29.71,SSW,196,3.0,4.0,77,0.00,,---,0.07,VWS V14.01,2013-03-19 03:29:00,
2013-03-18 23:30:00,48.8,41.9,29.71,SW,214,4.0,8.0,77,0.00,,---,0.07,VWS V14.01,2013-03-19 03:30:00,
2013-03-18 23:34:00,49.2,42.3,29.71,SSW,209,2.0,8.0,77,0.00,,---,0.07,VWS V14.01,2013-03-19 03:34:00,
2013-03-18 23:39:00,49.4,42.5,29.70,SSW,194,3.0,3.0,77,0.00,,---,0.07,VWS V14.01,2013-03-19 03:39:00,
2013-03-18 23:40:00,49.4,42.5,29.70,SSW,207,3.0,8.0,77,0.00,,---,0.07,VWS V14.01,2013-03-19 03:40:00,
2013-03-18 23:44:00,49.6,43.0,29.70,SSE,163,4.0,8.0,78,0.00,,---,0.07,VWS V14.01,2013-03-19 03:44:00,
2013-03-18 23:49:00,49.7,43.1,29.70,South,172,5.0,8.0,78,0.00,,---,0.07,VWS V14.01,2013-03-19 03:49:00,
2013-03-18 23:50:00,49.7,43.1,29.70,SSW,209,4.0,8.0,78,0.00,,---,0.07,VWS V14.01,2013-03-19 03:50:00,
2013-03-18 23:54:00,49.8,43.2,29.70,SW,214,4.0,9.0,78,0.00,,---,0.07,VWS V14.01,2013-03-19 03:54:00,
2013-03-18 23:59:00,50.0,43.8,29.70,South,183,7.0,7.0,79,0.00,,---,0.00,VWS V14.01,2013-03-19 03:59:00,